Location: Caltech
(34.1382°N, 118.1253°W)
Time: 06:03:34
(UTC-07:00)

Iridium 68 - Visible Passes

Search period start: 25 May 2016 00:00
Search period end: 04 June 2016 00:00
Orbit: 776 x 779 km, 86.4° (Epoch: 24 May)

Date Brightness Start Highest point End Pass type
(mag) Time Alt. Az. Time Alt. Az. Time Alt. Az.
25 May 6.0 21:48:52 10° N 21:54:04 63° E 21:55:30 45° SE visible
25 May 8.6 23:32:24 10° WNW 23:34:06 12° WNW 23:35:49 10° W visible
26 May 6.8 21:15:47 10° NNE 21:20:26 32° E 21:22:22 25° ESE visible
26 May 7.9 22:56:53 10° NNW 23:00:54 23° W 23:02:52 19° WSW visible
27 May 7.6 20:43:21 10° NE 20:46:41 17° ENE 20:49:15 12° ESE visible
27 May 6.9 22:22:39 10° NNW 22:27:34 44° W 22:29:45 29° SW visible
28 May 6.0 21:48:55 10° N 21:54:09 87° W 21:56:40 32° S visible
29 May 6.3 21:15:33 10° N 21:20:36 48° E 21:23:35 23° SSE visible
29 May 8.5 22:57:51 10° NW 23:00:49 15° W 23:03:47 10° WSW visible
30 May 7.2 20:42:39 10° NNE 20:46:56 25° E 20:50:31 13° SE visible
30 May 7.7 22:23:06 10° NNW 22:27:34 30° W 22:31:02 15° SW visible
31 May 6.5 21:49:05 10° N 21:54:12 58° W 21:57:59 18° SSW visible
01 Jun 6.0 21:15:30 10° N 21:20:43 73° E 21:24:58 16° S visible
02 Jun 6.7 20:42:18 10° NNE 20:47:07 37° E 20:51:54 10° SSE visible
02 Jun 8.3 22:23:47 10° NW 22:27:30 20° W 22:31:13 10° SW visible
03 Jun 7.3 21:49:24 10° NNW 21:54:13 38° W 21:58:59 10° SSW visible
